Content
SEND FEEDBACK

Daily
Averages
Monthly
Summary
United States of America

ANN ARBOR, MICHIGAN


Home > North America > United States > Michigan
Elevation: 759 feet     Latitude: 42 17N     Longitude: 083 43W

WEATHER
 
SELECT A DAY
Number of Records: 203,415;   Date Range: 1/1/95 - 7/29/14
 
SHARE

PRINT THIS DATA

[ ← Previous Day ]
WEATHER ALMANAC - APRIL 30, 2013
[ Next Day → ]
[ °C ]   °F
Weather ElementAverageHighLow
Temperature61.4 °F73 °F (3:53 pm)52 °F (5:53 am)
Dewpoint52.7 °F55 °F (3:53 pm)50 °F (5:53 am)
Humidity74.5 %93 % (4:53 am)53 % (3:53 pm)
Barometer30.01 in30.07 in (11:53 am)29.96 in (1:53 am)
Wind Speed7.8 mph17.3 mph (2:53 pm)
Wind Gust25.3 mph (2:53 pm)
Weather ElementAverage
Visibility8.6 mi
Wind DirectionSSE (159.5 °)

Weather ElementTotal
Precipitation---
Heating Degree Days2.5 (Base 65)
Growing Degree Days12.5 (Base 50)
Averaged from 22 records on April 30, 2013
WEATHER CONDITIONS BREAKOUT
WIND DIRECTION BREAKOUT
WEATHER BY HOUR - APRIL 30, 2013
[ °C ]   °F
Local TimeTemperatureDewpointHumidityBarometerVisibilityWind DirectionWind SpeedGust SpeedPrecipitationEventsConditions
1:53 AM57.0 °F53.1 °F87 %29.96 in8.0 miSouth (190°)4.6 mphPartly Cloudy
2:53 AM55.0 °F52.0 °F89 %29.96 in7.0 miSSW (200°)5.8 mphPartly Cloudy
3:53 AM54.0 °F51.1 °F90 %29.97 in7.0 miSW (220°)3.5 mphPartly Cloudy
4:53 AM53.1 °F51.1 °F93 %29.97 in5.0 miSouth (190°)4.6 mphClear
5:53 AM52.0 °F50.0 °F93 %29.97 in6.0 miSouth (170°)5.8 mphClear
6:53 AM53.1 °F50.0 °F89 %29.97 in4.0 miSouth (180°)5.8 mphClear
7:53 AM55.0 °F52.0 °F89 %30.01 in5.0 miSSW (210°)6.9 mphOvercast
8:53 AM59.0 °F53.1 °F81 %30.02 in8.0 miSSW (200°)10.4 mphMostly Cloudy
9:53 AM62.1 °F54.0 °F75 %30.04 in10.0 miSouth (190°)5.8 mphMostly Cloudy
10:53 AM62.1 °F53.1 °F72 %30.06 in10.0 miSSW (210°)10.4 mphPartly Cloudy
11:53 AM62.1 °F52.0 °F70 %30.07 in10.0 miSouth (170°)6.9 mphMostly Cloudy
12:53 PM62.1 °F53.1 °F72 %30.03 in10.0 miSE (130°)10.4 mph0.00 inMostly Cloudy
1:53 PM66.0 °F53.1 °F63 %30.02 in10.0 miSSE (160°)16.1 mph20.7 mphClear
2:53 PM70.0 °F54.0 °F57 %30.01 in10.0 miSouth (170°)17.3 mph25.3 mphClear
3:53 PM73.0 °F55.0 °F53 %30.00 in10.0 miSouth (170°)11.5 mph20.7 mphClear
4:53 PM73.0 °F55.0 °F53 %29.99 in10.0 miSSE (150°)12.7 mph24.2 mphClear
5:53 PM72.0 °F54.0 °F53 %29.99 in10.0 miSouth (170°)12.7 mphClear
6:53 PM71.1 °F54.0 °F55 %30.00 in10.0 miSSE (150°)10.4 mphClear
8:53 PM62.1 °F53.1 °F72 %30.04 in10.0 miSSE (150°)4.6 mphClear
9:53 PM61.0 °F52.0 °F72 %30.05 in10.0 miSE (130°)4.6 mphClear
10:53 PM59.0 °F52.0 °F78 %30.06 in10.0 miCalmClear
11:53 PM57.0 °F52.0 °F83 %30.07 in10.0 miCalmClear
Hourly data recorded from KARB, located miles away from Ann Arbor, Michigan







STORIES FROM OUR PARTNERS